Location: Northcutt
(34.7304°N, 84.4305°W)
Time: 16:28:05
(UTC+00:00)

SR - Pass Details

Date: 05 October 2022
Orbit: 577 x 874 km, 66.7° (Epoch: 05 December)

Event Time Altitude Azimuth Distance (km) Brightness Sun altitude
Rises 03:14:54 0° 256° (WSW) 3,437 ? -47.3°
Enters shadow 03:16:38 - 265° (W) 2,955 ? -47.6°
Reaches altitude 10° 03:18:32 10° 278° (W) 2,521 - -47.9°
Maximum altitude 03:21:49 15° 313° (NW) 2,179 - -48.4°
Drops below altitude 10° 03:25:07 10° 347° (NNW) 2,520 - -48.9°
Sets 03:28:46 0° 10° (N) 3,436 - -49.5°
